Meteo orario Al-Kunajtira

Oggi, 25 Ottobre, Domenica

Tempo Temperatura Precipitazioni Vento Pressione Umidità
00:00 +23°C° 0 mm 1 m/s 733 mm Hg 20%
01:00 +21°C° 0 mm 0 m/s 733 mm Hg 21%
02:00 +20°C° 0 mm 0 m/s 733 mm Hg 22%
03:00 +20°C° 0 mm 0 m/s 733 mm Hg 23%
04:00 +19°C° 0 mm 0 m/s 733 mm Hg 24%
05:00 +19°C° 0 mm 0 m/s 733 mm Hg 25%
06:00 +23°C° 0 mm 1 m/s 734 mm Hg 22%
07:00 +25°C° 0 mm 1 m/s 734 mm Hg 20%
08:00 +27°C° 0 mm 1 m/s 734 mm Hg 17%
09:00 +29°C° 0 mm 1 m/s 734 mm Hg 16%
10:00 +31°C° 0 mm 1 m/s 734 mm Hg 14%
11:00 +34°C° 0 mm 2 m/s 734 mm Hg 13%
12:00 +33°C° 0 mm 1 m/s 734 mm Hg 12%
13:00 +34°C° 0 mm 1 m/s 734 mm Hg 12%
14:00 +34°C° 0 mm 1 m/s 733 mm Hg 12%
15:00 +31°C° 0 mm 1 m/s 733 mm Hg 20%
16:00 +29°C° 0 mm 2 m/s 733 mm Hg 27%
17:00 +26°C° 0 mm 2 m/s 732 mm Hg 35%
18:00 +25°C° 0 mm 2 m/s 733 mm Hg 40%
19:00 +24°C° 0 mm 2 m/s 733 mm Hg 45%
20:00 +23°C° 0 mm 2 m/s 734 mm Hg 49%
21:00 +22°C° 0 mm 1 m/s 734 mm Hg 49%
22:00 +22°C° 0 mm 1 m/s 734 mm Hg 49%
23:00 +21°C° 0 mm 1 m/s 734 mm Hg 49%

Domani, 26 Ottobre, Lunedi

Tempo Temperatura Precipitazioni Vento Pressione Umidità
00:00 +21°C° 0 mm 1 m/s 734 mm Hg 49%
01:00 +18°C° 0 mm 0 m/s 734 mm Hg 49%
02:00 +18°C° 0 mm 0 m/s 734 mm Hg 49%
03:00 +18°C° 0 mm 0 m/s 734 mm Hg 49%
04:00 +17°C° 0 mm 0 m/s 734 mm Hg 49%
05:00 +17°C° 0 mm 0 m/s 734 mm Hg 49%
06:00 +19°C° 0 mm 0 m/s 734 mm Hg 42%
07:00 +22°C° 0 mm 0 m/s 735 mm Hg 34%
08:00 +24°C° 0 mm 0 m/s 735 mm Hg 27%
09:00 +28°C° 0 mm 1 m/s 735 mm Hg 23%
10:00 +30°C° 0 mm 1 m/s 735 mm Hg 19%
11:00 +32°C° 0 mm 1 m/s 735 mm Hg 15%
12:00 +33°C° 0 mm 1 m/s 735 mm Hg 14%
13:00 +35°C° 0 mm 2 m/s 735 mm Hg 12%
14:00 +35°C° 0 mm 2 m/s 734 mm Hg 11%
15:00 +32°C° 0 mm 2 m/s 734 mm Hg 13%
16:00 +29°C° 0 mm 2 m/s 734 mm Hg 15%
17:00 +27°C° 0 mm 2 m/s 734 mm Hg 18%
18:00 +26°C° 0 mm 1 m/s 734 mm Hg 19%
19:00 +25°C° 0 mm 1 m/s 735 mm Hg 20%
20:00 +24°C° 0 mm 1 m/s 735 mm Hg 21%
21:00 +23°C° 0 mm 1 m/s 735 mm Hg 21%
22:00 +22°C° 0 mm 1 m/s 734 mm Hg 22%
23:00 +22°C° 0 mm 1 m/s 734 mm Hg 22%

Dopodomani, 27 Ottobre, Martedi

Tempo Temperatura Precipitazioni Vento Pressione Umidità
00:00 +21°C° 0 mm 1 m/s 734 mm Hg 23%
01:00 +21°C° 0 mm 1 m/s 734 mm Hg 23%
02:00 +20°C° 0 mm 1 m/s 734 mm Hg 24%
03:00 +20°C° 0 mm 1 m/s 734 mm Hg 25%
04:00 +19°C° 0 mm 1 m/s 734 mm Hg 25%
05:00 +19°C° 0 mm 1 m/s 734 mm Hg 26%
06:00 +21°C° 0 mm 1 m/s 734 mm Hg 23%
07:00 +23°C° 0 mm 1 m/s 734 mm Hg 21%
08:00 +25°C° 0 mm 2 m/s 735 mm Hg 18%
09:00 +28°C° 0 mm 2 m/s 735 mm Hg 16%
10:00 +30°C° 0 mm 3 m/s 735 mm Hg 14%
11:00 +33°C° 0 mm 3 m/s 735 mm Hg 12%
12:00 +34°C° 0 mm 3 m/s 734 mm Hg 11%
13:00 +35°C° 0 mm 3 m/s 734 mm Hg 10%
14:00 +36°C° 0 mm 2 m/s 734 mm Hg 9%
15:00 +32°C° 0 mm 2 m/s 733 mm Hg 11%
16:00 +29°C° 0 mm 2 m/s 733 mm Hg 13%
17:00 +27°C° 0 mm 1 m/s 733 mm Hg 15%
18:00 +25°C° 0 mm 1 m/s 733 mm Hg 18%
19:00 +24°C° 0 mm 1 m/s 733 mm Hg 21%
20:00 +23°C° 0 mm 1 m/s 733 mm Hg 23%
21:00 +22°C° 0 mm 1 m/s 733 mm Hg 24%
22:00 +21°C° 0 mm 1 m/s 733 mm Hg 25%
23:00 +20°C° 0 mm 1 m/s 733 mm Hg 26%

28 Ottobre, Mercoledi

Tempo Temperatura Precipitazioni Vento Pressione Umidità
00:00 +20°C° 0 mm 1 m/s 733 mm Hg 27%
01:00 +19°C° 0 mm 1 m/s 733 mm Hg 28%
02:00 +18°C° 0 mm 1 m/s 733 mm Hg 29%
03:00 +18°C° 0 mm 1 m/s 733 mm Hg 32%
04:00 +18°C° 0 mm 1 m/s 733 mm Hg 34%
05:00 +16°C° 0 mm 1 m/s 733 mm Hg 36%
06:00 +19°C° 0 mm 1 m/s 734 mm Hg 33%
07:00 +21°C° 0 mm 1 m/s 734 mm Hg 30%
08:00 +23°C° 0 mm 1 m/s 735 mm Hg 28%
09:00 +25°C° 0 mm 1 m/s 735 mm Hg 27%
10:00 +26°C° 0 mm 1 m/s 735 mm Hg 26%
11:00 +28°C° 0 mm 1 m/s 735 mm Hg 25%
12:00 +29°C° 0 mm 1 m/s 735 mm Hg 27%
13:00 +29°C° 0 mm 2 m/s 735 mm Hg 29%
14:00 +30°C° 0 mm 2 m/s 735 mm Hg 30%
15:00 +28°C° 0 mm 3 m/s 735 mm Hg 40%
16:00 +26°C° 0 mm 3 m/s 735 mm Hg 49%
17:00 +24°C° 0 mm 3 m/s 735 mm Hg 58%
18:00 +23°C° 0 mm 2 m/s 735 mm Hg 66%
19:00 +21°C° 0 mm 2 m/s 735 mm Hg 73%
20:00 +20°C° 0 mm 1 m/s 735 mm Hg 81%
21:00 +20°C° 0 mm 1 m/s 735 mm Hg 82%
22:00 +20°C° 0 mm 1 m/s 735 mm Hg 83%
23:00 +19°C° 0 mm 1 m/s 736 mm Hg 83%

29 Ottobre, Giovedi

Tempo Temperatura Precipitazioni Vento Pressione Umidità
00:00 +19°C° 0 mm 1 m/s 735 mm Hg 83%
01:00 +19°C° 0 mm 1 m/s 735 mm Hg 83%
02:00 +19°C° 0 mm 1 m/s 735 mm Hg 83%
03:00 +17°C° 0 mm 0 m/s 735 mm Hg 84%
04:00 +16°C° 0 mm 0 m/s 735 mm Hg 84%
05:00 +16°C° 0 mm 0 m/s 736 mm Hg 85%
06:00 +18°C° 0 mm 0 m/s 736 mm Hg 78%
07:00 +19°C° 0 mm 0 m/s 736 mm Hg 71%
08:00 +21°C° 0 mm 0 m/s 737 mm Hg 64%
09:00 +23°C° 0 mm 0 m/s 737 mm Hg 55%
10:00 +27°C° 0 mm 1 m/s 737 mm Hg 45%
11:00 +29°C° 0 mm 1 m/s 737 mm Hg 36%
12:00 +29°C° 0 mm 1 m/s 737 mm Hg 33%
13:00 +30°C° 0 mm 2 m/s 736 mm Hg 31%
14:00 +31°C° 0 mm 3 m/s 736 mm Hg 28%
15:00 +29°C° 0 mm 2 m/s 736 mm Hg 36%
16:00 +26°C° 0 mm 2 m/s 736 mm Hg 43%
17:00 +24°C° 0 mm 2 m/s 736 mm Hg 51%
18:00 +23°C° 0 mm 2 m/s 736 mm Hg 57%
19:00 +21°C° 0 mm 2 m/s 736 mm Hg 63%
20:00 +20°C° 0 mm 1 m/s 736 mm Hg 70%
21:00 +20°C° 0 mm 1 m/s 736 mm Hg 71%
22:00 +20°C° 0 mm 1 m/s 736 mm Hg 72%
23:00 +19°C° 0 mm 1 m/s 736 mm Hg 72%

30 Ottobre, Venerdi

Tempo Temperatura Precipitazioni Vento Pressione Umidità
00:00 +19°C° 0 mm 1 m/s 736 mm Hg 74%
01:00 +18°C° 0 mm 1 m/s 736 mm Hg 75%
02:00 +18°C° 0 mm 1 m/s 736 mm Hg 76%
03:00 +18°C° 0 mm 1 m/s 736 mm Hg 77%
04:00 +18°C° 0 mm 1 m/s 736 mm Hg 79%
05:00 +15°C° 0 mm 0 m/s 736 mm Hg 80%
06:00 +17°C° 0 mm 0 m/s 737 mm Hg 73%
07:00 +21°C° 0 mm 1 m/s 737 mm Hg 65%
08:00 +23°C° 0 mm 1 m/s 737 mm Hg 58%
09:00 +24°C° 0 mm 1 m/s 737 mm Hg 50%
10:00 +26°C° 0 mm 1 m/s 737 mm Hg 43%
11:00 +28°C° 0 mm 1 m/s 737 mm Hg 35%
12:00 +29°C° 0 mm 2 m/s 737 mm Hg 32%
13:00 +29°C° 0 mm 2 m/s 736 mm Hg 30%
14:00 +30°C° 0 mm 3 m/s 736 mm Hg 27%
15:00 +28°C° 0 mm 3 m/s 736 mm Hg 35%
16:00 +25°C° 0 mm 2 m/s 736 mm Hg 42%
17:00 +23°C° 0 mm 2 m/s 735 mm Hg 50%
18:00 +21°C° 0 mm 2 m/s 735 mm Hg 55%
19:00 +20°C° 0 mm 2 m/s 735 mm Hg 60%
20:00 +20°C° 0 mm 1 m/s 735 mm Hg 65%
21:00 +19°C° 0 mm 1 m/s 735 mm Hg 66%
22:00 +19°C° 0 mm 1 m/s 735 mm Hg 66%
23:00 +18°C° 0 mm 1 m/s 735 mm Hg 66%
Mostrare altro

Abbiamo bisogno del tuo consenso

Meteoprog e i nostri fornitori di servizi possono memorizzare e accedere a dati personali come cookie, identificatori di dispositivi o altre tecnologie simili sul tuo dispositivo e possono elaborare tali dati per personalizzare i contenuti e gli annunci, nonché fornire funzionalità dei social media e analizzarne il traffico.

  • Archiviare e/o accedere alle informazioni sul tuo dispositivo

    Cookie, identificatori di dispositivi o altre informazioni possono essere memorizzati o resi accessibili sul tuo dispositivo per le finalità sopra indicate.

  • Annunci e contenuti personalizzati, misurazione di annunci e contenuti, approfondimenti sul pubblico e sviluppo di prodotti

    Gli annunci e i contenuti possono essere personalizzati in base a un profilo. È possibile aggiungere più dati per personalizzare meglio annunci e contenuti. È possibile misurare il rendimento degli annunci e dei contenuti. È possibile ricavare informazioni sul pubblico che ha visto gli annunci e i contenuti. Tali dati possono essere utilizzati per sviluppare o migliorare l'esperienza, i sistemi e il software dell'utente.

Cliccando su “Accetto”, acconsenti all'uso di cookie, identificatori di dispositivo, web beacon o altre tecnologie simili. Puoi modificare le impostazioni nel browser del tuo dispositivo.

Per determinati scopi, è possibile fare affidamento su interessi legali, piuttosto che sul consenso. Puoi approfondire questo argomento consultando la nostra Informativa sulla privacy e sui cookie.